Location: Blankensee
(53.5126°N, 14.3055°E)
Time: 18:02:30
(UTC+00:00)

Cosmos 1953 - Pass Details

Date: 08 August 2020
Orbit: 538 x 558 km, 82.5° (Epoch: 19 September)

Event Time Altitude Azimuth Distance (km) Brightness Sun altitude
Exits shadow 01:55:50 - 168° (SSE) 2,276 5.1 -11.7°
Reaches altitude 10° 01:56:58 10° 164° (SSE) 1,826 4.7 -11.6°
Maximum altitude 02:00:46 42° 93° (E) 800 3.5 -11.3°
Drops below altitude 10° 02:04:37 10° 23° (NNE) 1,851 6.3 -10.9°
Sets 02:06:53 0° 16° (NNE) 2,754 7.1 -10.6°
